TimeCDT,TemperatureF,Dew PointF,Humidity,Sea Level PressureIn,VisibilityMPH,Wind Direction,Wind SpeedMPH,Gust SpeedMPH,PrecipitationIn,Events,Conditions,WindDirDegrees,DateUTC
12:53 AM,73.0,57.0,57,30.01,10.0,NNW,8.1,-,N/A,,Clear,340,2013-07-02 05:53:00
1:53 AM,71.1,55.9,59,30.00,10.0,North,8.1,-,N/A,,Clear,360,2013-07-02 06:53:00
2:53 AM,70.0,55.0,59,30.00,10.0,NNW,8.1,-,N/A,,Clear,330,2013-07-02 07:53:00
3:53 AM,69.1,54.0,58,30.00,10.0,NNW,8.1,-,N/A,,Clear,340,2013-07-02 08:53:00
4:53 AM,68.0,54.0,61,30.01,10.0,NNW,9.2,-,N/A,,Scattered Clouds,340,2013-07-02 09:53:00
5:53 AM,66.9,55.0,66,30.02,10.0,NNW,9.2,-,N/A,,Mostly Cloudy,340,2013-07-02 10:53:00
6:53 AM,66.9,55.9,68,30.04,10.0,NNW,9.2,-,N/A,,Mostly Cloudy,340,2013-07-02 11:53:00
7:53 AM,71.1,55.9,59,30.05,10.0,North,11.5,-,N/A,,Scattered Clouds,350,2013-07-02 12:53:00
9:53 AM,78.1,55.0,45,30.07,10.0,North,11.5,-,N/A,,Partly Cloudy,360,2013-07-02 14:53:00
10:53 AM,81.0,51.1,35,30.07,10.0,North,15.0,-,N/A,,Partly Cloudy,10,2013-07-02 15:53:00
11:53 AM,82.0,52.0,35,30.07,10.0,NE,9.2,-,N/A,,Partly Cloudy,50,2013-07-02 16:53:00
12:53 PM,84.9,51.1,31,30.06,10.0,NE,10.4,20.7,N/A,,Scattered Clouds,40,2013-07-02 17:53:00
1:53 PM,87.1,46.9,25,30.04,10.0,North,12.7,-,N/A,,Scattered Clouds,10,2013-07-02 18:53:00
2:53 PM,88.0,46.9,24,30.02,10.0,North,15.0,23.0,N/A,,Scattered Clouds,360,2013-07-02 19:53:00
3:53 PM,87.1,45.0,23,30.01,10.0,NNE,9.2,-,N/A,,Scattered Clouds,30,2013-07-02 20:53:00
4:53 PM,88.0,45.0,22,30.00,10.0,NNW,10.4,20.7,N/A,,Scattered Clouds,330,2013-07-02 21:53:00
5:53 PM,86.0,46.0,25,29.98,10.0,NNE,6.9,-,N/A,,Scattered Clouds,20,2013-07-02 22:53:00
6:53 PM,86.0,46.9,26,29.99,10.0,North,9.2,-,N/A,,Partly Cloudy,360,2013-07-02 23:53:00
7:53 PM,84.0,48.0,28,29.99,10.0,NE,10.4,-,N/A,,Partly Cloudy,40,2013-07-03 00:53:00
8:53 PM,80.1,48.0,32,29.99,10.0,NE,6.9,-,N/A,,Partly Cloudy,40,2013-07-03 01:53:00
9:53 PM,77.0,50.0,39,30.01,10.0,NE,5.8,-,N/A,,Partly Cloudy,40,2013-07-03 02:53:00
10:53 PM,77.0,50.0,39,30.02,10.0,NE,4.6,-,N/A,,Clear,50,2013-07-03 03:53:00
11:53 PM,75.9,48.9,38,30.02,10.0,Calm,Calm,-,N/A,,Clear,0,2013-07-03 04:53:00